Home   Weather   Bat Yam   Past weeks

Flag for Israel Past Weather in Bat Yam, Israel — Yesterday and Last 2 Weeks

Now
66 °F

Clear.


Feels Like: 66 °F
Forecast: 62 / 74 °F
Wind: 3 mph from North

Location: Dov Airport

Current Time: Apr 26, 2017 at 9:26:14 am

Latest Report: Apr 26, 2017 at 8:50 am


Visibility: 5 mi

Pressure: 29.98 "Hg

Humidity: 68%

Dew Point: 55 °F

Location of Bat YamLocation

Past Weather in Bat Yam — Graph

°F

Bat Yam Temperature Yesterday

Maximum temperature yesterday: 70 °F (at 12:50 pm)
Minimum temperature yesterday: 59 °F (at 5:30 am)
Average temperature yesterday: 65 °F

High & Low Weather Summary for the Past Weeks

 TemperatureHumidityPressure
High88 °F (Apr 12, 1:50 pm)88% (Apr 12, 5:30 am)30.12 "Hg (Apr 12, 5:30 am)
Low57 °F (Apr 17, 6:00 am)19% (Apr 12, 1:50 pm)29.65 "Hg (Apr 22, 4:50 pm)
Average69 °F63%29.95 "Hg
* Reported Apr 11 7:50 am — Apr 26 7:50 am, Bat Yam, Weather by CustomWeather, © 2017

Note: Actual official high and low records may vary slightly from our data, if they occured in-between our weather recording intervals... More about our weather records

Advertising

Bat Yam Weather History for the Previous 24 Hours

Scroll right to see more
 ConditionsComfort  
Time TempWeatherWind HumidityBarometerVisibility
7:50 am
Wed, Apr 26
63 °FClear.1 mph73%29.98 "Hg5 mi
6:50 am61 °FClear.3 mph77%29.98 "Hg4 mi
5:50 am59 °FClear.5 mph82%29.98 "Hg5 mi
5:00 am59 °FClear.3 mph82%29.98 "Hg5 mi
11:50 pm
Tue, Apr 25
63 °FClear.9 mph83%30.01 "Hg10 mi
10:50 pm63 °FClear.8 mph83%30.01 "Hg10 mi
9:50 pm63 °FClear.6 mph77%30.01 "Hg10 mi
8:50 pm64 °FClear.10 mph73%30.01 "Hg10 mi
7:50 pm66 °FClear.14 mph68%30.01 "Hg10 mi
6:50 pm66 °FSunny.17 mph68%30.01 "Hg10 mi
5:50 pm68 °FSunny.20 mph64%30.01 "Hg10 mi
4:50 pm70 °FSunny.20 mph53%30.01 "Hg10 mi
3:50 pm70 °FSunny.18 mph57%30.04 "Hg10 mi
2:50 pm70 °FSunny.17 mph53%30.04 "Hg10 mi
1:50 pm70 °FSunny.17 mph53%30.07 "Hg10 mi
12:50 pm70 °FSunny.16 mph53%30.07 "Hg10 mi
11:50 am68 °FSunny.15 mph56%30.09 "Hg10 mi
10:50 am68 °FSunny.13 mph56%30.09 "Hg10 mi
9:50 am66 °FPassing clouds.10 mph56%30.09 "HgN/A
Weather by CustomWeather, © 2017

See weather overviewHow to use our weather pages